Tracking 18032 objects as of 24-March-2017
HD Live streaming from Space Station
objects crossing your sky now

CUBEBUG 2

Track CUBEBUG 2 now!
10-day predictions
CUBEBUG 2 is classified as:


NORAD ID: 39440
Int'l Code: 2013-066AA
Perigee: 594.9 km
Apogee: 707.2 km
Inclination: 97.6 °
Period: 97.6 minutes
Semi major axis: 7022 km
RCS: Unknown
Launch date: November 21, 2013
Source: (TBD)
Launch site: Orenburg, Russia (OREN)
Uplink (MHz):
Downlink (MHz): 437.445
Beacon (MHz):
Mode: 1k2AFSK 9k6FSK
Call sign: CUBEB2-6
Status: Active

Your satellite tracking list
Your tracking list is empty





NASA's NSSDC Master Catalog

Two Line Element Set (TLE):
1 39440U 13066AA  17081.91161165 +.00000283 +00000-0 +46911-4 0  9991
2 39440 097.6389 118.1530 0079985 219.3962 140.1414 14.75388769178170
Source of the keplerian elements: Caltech